Regional Weather Roundup
Issued by NWS Glasgow, MT

Home | Current Version | Previous Version | Text Only | Print | Product List | Glossary On
Versions: 1 2 3 4 5 6 7 8 9 10 11 12 13 14 15 16 17 18 19 20 21 22 23 24 25 26 27
000
ASUS45 KGGW 180415
RWRGGW
HOURLY WEATHER ROUNDUP FOR NORTHEAST MONTANA
NATIONAL WEATHER SERVICE GLASGOW MONTANA
1000 PM MDT THU APR 17 2014

NOTE: "FAIR" INDICATES FEW OR NO CLOUDS BELOW 12,000 FEET WITH NO
SIGNIFICANT WEATHER AND/OR OBSTRUCTIONS TO VISISBILITY.

NORTHEAST MONTANA


CITY           SKY/WX    TMP DP  RH WIND       PRES   REMARKS
GLASGOW        MOCLDY    44  33  65 E22       29.82F
PLENTYWOOD       N/A     38  29  70 E12G22      N/A
WOLF POINT     CLOUDY    46  31  55 E13       29.90F
JORDAN           N/A     52  36  54 NW5       29.81S
WINNETT          N/A     51  39  63 E5          N/A
SIDNEY         CLOUDY    43  28  56 SE9       29.98S
GLENDIVE       CLOUDY    46  30  53 SE15      29.92F

FORT PECK REPORTS


CITY           SKY/WX    TMP DP  RH WIND       PRES   REMARKS
FORT PECK        N/A     46  32  58 E25         N/A
THE PINES        N/A     50  32  50 SE9         N/A

SOUTHEAST MONTANA


CITY           SKY/WX    TMP DP  RH WIND       PRES   REMARKS
BILLINGS       CLOUDY    55  32  41 E8        29.78F
MILES CITY     MOCLDY    52  34  50 SE16G24   29.84R
BAKER          CLOUDY    43  31  62 SE20      29.92F
LIVINGSTON     MOCLDY    54  24  31 CALM      29.75S

CENTRAL MONTANA


CITY           SKY/WX    TMP DP  RH WIND       PRES   REMARKS
HAVRE          CLOUDY    51  36  56 E9        29.74R
LEWISTOWN      CLOUDY    47  35  63 SE6       29.78R
GREAT FALLS    LGT RAIN  48  42  80 W3        29.73R
CUT BANK       MOCLDY    44  35  70 SW9       29.70S
HELENA         CLOUDY    56  34  43 E5        29.70F
BUTTE          CLOUDY    48  30  49 S5        29.74F
BOZEMAN        MOCLDY    45  30  55 SE10      29.74F

WESTERN MONTANA


CITY           SKY/WX    TMP DP  RH WIND       PRES   REMARKS
MISSOULA       LGT RAIN  46  44  93 NW3       29.76S
KALISPELL      NOT AVBL

NORTH DAKOTA


CITY           SKY/WX    TMP DP  RH WIND       PRES   REMARKS
WILLISTON      MOCLDY    39  26  59 SE9       30.01S
DICKINSON      CLOUDY    38  26  62 SE17      30.00S
MINOT          CLOUDY    35  21  56 E10       30.12F
BISMARCK       MOCLDY    33  23  66 SE8       30.14S

SOUTHERN SASKATCHEWAN


CITY           SKY/WX    TMP DP  RH WIND       PRES   REMARKS
REGINA         CLOUDY    36  23  60 SE25G32   30.02S
ESTEVAN        MOCLDY    34  21  60 SE14      30.07F
SWIFT CURRENT  CLOUDY    43  36  75 SE16      29.80F




USA.gov is the U.S. government's official web portal to all federal, state and local government web resources and services.